EN

Hourly Weather Trosnoe

Today, 23 April, Friday

Time Temperature Precipitation Wind Pressure Humidity
00:00 +6°C° 0 mm 4 mps 739 mmHg 84%
01:00 +6°C° 0 mm 4 mps 739 mmHg 84%
02:00 +6°C° 0 mm 4 mps 739 mmHg 85%
03:00 +6°C° 0 mm 4 mps 739 mmHg 85%
04:00 +5°C° 0 mm 4 mps 739 mmHg 85%
05:00 +5°C° 0 mm 4 mps 739 mmHg 85%
06:00 +7°C° 0 mm 5 mps 739 mmHg 78%
07:00 +9°C° 0 mm 5 mps 738 mmHg 72%
08:00 +11°C° 0 mm 6 mps 738 mmHg 65%
09:00 +12°C° 0 mm 7 mps 738 mmHg 59%
10:00 +14°C° 0 mm 7 mps 738 mmHg 52%
11:00 +15°C° 0 mm 8 mps 737 mmHg 46%
12:00 +15°C° 0.2 mm 8 mps 737 mmHg 51%
13:00 +13°C° 0.2 mm 8 mps 737 mmHg 55%
14:00 +12°C° 0.2 mm 8 mps 737 mmHg 60%
15:00 +11°C° 0.4 mm 6 mps 736 mmHg 66%
16:00 +11°C° 0.4 mm 4 mps 736 mmHg 72%
17:00 +10°C° 0.4 mm 2 mps 736 mmHg 78%
18:00 +9°C° 2.1 mm 2 mps 736 mmHg 83%
19:00 +7°C° 2.1 mm 2 mps 736 mmHg 87%
20:00 +6°C° 2.1 mm 2 mps 736 mmHg 92%
21:00 +6°C° 1.5 mm 2 mps 735 mmHg 92%
22:00 +6°C° 1.5 mm 2 mps 735 mmHg 93%
23:00 +5°C° 1.5 mm 3 mps 734 mmHg 93%

Tomorrow, 24 April, Saturday

Time Temperature Precipitation Wind Pressure Humidity
00:00 +4°C° 0.9 mm 3 mps 734 mmHg 93%
01:00 +4°C° 0.9 mm 4 mps 734 mmHg 92%
02:00 +2°C° 0.9 mm 5 mps 734 mmHg 92%
03:00 +3°C° 0.3 mm 4 mps 734 mmHg 91%
04:00 +3°C° 0.3 mm 3 mps 734 mmHg 90%
05:00 +3°C° 0.3 mm 3 mps 734 mmHg 89%
06:00 +4°C° 0.1 mm 3 mps 733 mmHg 82%
07:00 +4°C° 0.1 mm 4 mps 733 mmHg 76%
08:00 +5°C° 0.1 mm 5 mps 733 mmHg 69%
09:00 +6°C° 0.2 mm 5 mps 733 mmHg 65%
10:00 +5°C° 0.2 mm 6 mps 733 mmHg 61%
11:00 +7°C° 0.2 mm 6 mps 733 mmHg 57%
12:00 +5°C° 0.3 mm 7 mps 733 mmHg 55%
13:00 +5°C° 0.3 mm 7 mps 733 mmHg 54%
14:00 +5°C° 0.3 mm 8 mps 733 mmHg 52%
15:00 +4°C° 0.1 mm 7 mps 733 mmHg 55%
16:00 +4°C° 0.1 mm 7 mps 733 mmHg 58%
17:00 +3°C° 0.1 mm 6 mps 733 mmHg 61%
18:00 +2°C° 0.1 mm 7 mps 734 mmHg 68%
19:00 0°C° 0.1 mm 7 mps 734 mmHg 75%
20:00 -1°C° 0.1 mm 7 mps 734 mmHg 82%
21:00 -1°C° 0.1 mm 7 mps 735 mmHg 83%
22:00 -1°C° 0.1 mm 7 mps 735 mmHg 84%
23:00 -2°C° 0.1 mm 7 mps 735 mmHg 86%

Day after tomorrow, 25 April, Sunday

Time Temperature Precipitation Wind Pressure Humidity
00:00 -2°C° 0 mm 7 mps 735 mmHg 86%
01:00 -2°C° 0 mm 7 mps 736 mmHg 85%
02:00 -3°C° 0 mm 6 mps 736 mmHg 85%
03:00 -3°C° 0 mm 6 mps 736 mmHg 85%
04:00 -2°C° 0 mm 5 mps 736 mmHg 85%
05:00 -2°C° 0 mm 5 mps 737 mmHg 85%
06:00 -1°C° 0 mm 5 mps 737 mmHg 78%
07:00 -1°C° 0 mm 6 mps 737 mmHg 72%
08:00 +2°C° 0 mm 7 mps 737 mmHg 65%
09:00 +3°C° 0 mm 7 mps 737 mmHg 59%
10:00 +4°C° 0 mm 7 mps 737 mmHg 52%
11:00 +5°C° 0 mm 7 mps 737 mmHg 46%
12:00 +5°C° 0 mm 7 mps 737 mmHg 45%
13:00 +6°C° 0 mm 7 mps 736 mmHg 44%
14:00 +6°C° 0 mm 7 mps 736 mmHg 43%
15:00 +5°C° 0.1 mm 7 mps 736 mmHg 55%
16:00 +4°C° 0.1 mm 7 mps 735 mmHg 66%
17:00 +3°C° 0.1 mm 7 mps 735 mmHg 78%
18:00 +2°C° 0.1 mm 6 mps 735 mmHg 82%
19:00 +1°C° 0.1 mm 5 mps 736 mmHg 85%
20:00 0°C° 0.1 mm 4 mps 736 mmHg 89%
21:00 0°C° 0 mm 4 mps 736 mmHg 89%
22:00 -1°C° 0 mm 4 mps 736 mmHg 90%
23:00 0°C° 0 mm 3 mps 736 mmHg 90%

26 April, Monday

Time Temperature Precipitation Wind Pressure Humidity
00:00 -1°C° 0 mm 3 mps 736 mmHg 90%
01:00 -1°C° 0 mm 3 mps 736 mmHg 89%
02:00 -2°C° 0 mm 3 mps 736 mmHg 89%
03:00 -2°C° 0 mm 3 mps 736 mmHg 88%
04:00 -2°C° 0 mm 3 mps 736 mmHg 86%
05:00 -2°C° 0 mm 2 mps 736 mmHg 85%
06:00 0°C° 0 mm 3 mps 736 mmHg 78%
07:00 +2°C° 0 mm 3 mps 736 mmHg 72%
08:00 +3°C° 0 mm 4 mps 736 mmHg 65%
09:00 +4°C° 0.1 mm 4 mps 736 mmHg 59%
10:00 +5°C° 0.1 mm 4 mps 736 mmHg 53%
11:00 +6°C° 0.1 mm 5 mps 736 mmHg 47%
12:00 +6°C° 0.1 mm 4 mps 736 mmHg 45%
13:00 +6°C° 0.1 mm 4 mps 736 mmHg 43%
14:00 +7°C° 0.1 mm 4 mps 735 mmHg 41%
15:00 +7°C° 0 mm 4 mps 735 mmHg 43%
16:00 +7°C° 0 mm 3 mps 735 mmHg 45%
17:00 +7°C° 0 mm 3 mps 735 mmHg 46%
18:00 +5°C° 0 mm 3 mps 735 mmHg 54%
19:00 +4°C° 0 mm 2 mps 735 mmHg 61%
20:00 +3°C° 0 mm 2 mps 735 mmHg 68%
21:00 +2°C° 0 mm 2 mps 735 mmHg 72%
22:00 +2°C° 0 mm 2 mps 734 mmHg 76%
23:00 +2°C° 0 mm 2 mps 734 mmHg 80%

27 April, Tuesday

Time Temperature Precipitation Wind Pressure Humidity
00:00 +2°C° 0.5 mm 2 mps 734 mmHg 86%
01:00 +1°C° 0.5 mm 2 mps 734 mmHg 92%
02:00 +1°C° 0.5 mm 2 mps 734 mmHg 97%
03:00 +1°C° 0.5 mm 2 mps 734 mmHg 97%
04:00 +1°C° 0.5 mm 2 mps 734 mmHg 97%
05:00 0°C° 0.5 mm 3 mps 734 mmHg 97%
06:00 +1°C° 0.1 mm 3 mps 734 mmHg 89%
07:00 0°C° 0.1 mm 4 mps 734 mmHg 81%
08:00 +1°C° 0.1 mm 4 mps 734 mmHg 74%
09:00 +2°C° 0.3 mm 5 mps 734 mmHg 67%
10:00 +3°C° 0.3 mm 5 mps 734 mmHg 61%
11:00 +5°C° 0.3 mm 5 mps 734 mmHg 54%
12:00 +4°C° 0.5 mm 6 mps 734 mmHg 53%
13:00 +5°C° 0.5 mm 6 mps 734 mmHg 52%
14:00 +5°C° 0.5 mm 6 mps 734 mmHg 51%
15:00 +5°C° 0.5 mm 6 mps 734 mmHg 55%
16:00 +5°C° 0.5 mm 5 mps 734 mmHg 58%
17:00 +5°C° 0.5 mm 5 mps 734 mmHg 62%
18:00 +3°C° 0.1 mm 4 mps 735 mmHg 68%
19:00 +2°C° 0.1 mm 3 mps 735 mmHg 75%
20:00 +1°C° 0.1 mm 3 mps 735 mmHg 81%
21:00 0°C° 0 mm 3 mps 736 mmHg 82%
22:00 0°C° 0 mm 3 mps 736 mmHg 84%
23:00 -1°C° 0 mm 3 mps 736 mmHg 85%

28 April, Wednesday

Time Temperature Precipitation Wind Pressure Humidity
00:00 -1°C° 0 mm 2 mps 736 mmHg 85%
01:00 -1°C° 0 mm 2 mps 737 mmHg 86%
02:00 -1°C° 0 mm 2 mps 737 mmHg 86%
03:00 -1°C° 0 mm 2 mps 737 mmHg 86%
04:00 -1°C° 0 mm 3 mps 737 mmHg 86%
05:00 -1°C° 0 mm 3 mps 738 mmHg 86%
06:00 +1°C° 0 mm 3 mps 738 mmHg 80%
07:00 +1°C° 0 mm 4 mps 738 mmHg 74%
08:00 +3°C° 0 mm 5 mps 738 mmHg 68%
09:00 +5°C° 0 mm 5 mps 738 mmHg 67%
10:00 +5°C° 0 mm 5 mps 738 mmHg 66%
11:00 +6°C° 0 mm 4 mps 738 mmHg 64%
12:00 +6°C° 0 mm 4 mps 738 mmHg 65%
13:00 +6°C° 0 mm 4 mps 739 mmHg 65%
14:00 +7°C° 0 mm 3 mps 739 mmHg 66%
15:00 +7°C° 0 mm 3 mps 738 mmHg 66%
16:00 +8°C° 0 mm 2 mps 738 mmHg 67%
17:00 +9°C° 0 mm 1 mps 738 mmHg 68%
18:00 +7°C° 0 mm 2 mps 738 mmHg 70%
19:00 +6°C° 0 mm 2 mps 738 mmHg 73%
20:00 +4°C° 0 mm 3 mps 737 mmHg 76%
21:00 +4°C° 0 mm 3 mps 737 mmHg 77%
22:00 +4°C° 0 mm 3 mps 737 mmHg 78%
23:00 +4°C° 0 mm 3 mps 737 mmHg 79%
Show more

We Need Your Consent

Meteoprog and our Service Providers may store and access personal data such as cookies, device identifiers or other similar technologies on your device and process such data to personalise content and ads, as well as provide social media features and to analyse the traffic.

  • Store and/or access information on your device

    Cookies, device identifiers or other information can be stored or accessed on your device for the purposes indicated above.

  • Personalised ads and content, ad and content measurement, audience insights, and products development

    Ads and content can be personalised based on a profile. More data can be added to better personalise ads and content. Ad and content performance can be measured. Insights about the audience who saw the ads and content can be derived. Such data can be used to develop or improve user’s experience, systems and software.

By clicking ‘I Agree’ you will allow the use of indicated cookies, device identifiers, web beacons or other similar technologies. Your settings can be changed in the browser on your device.

For certain purposes, legitimate interests may be relied on, rather than consent. You can read more about this in our Privacy and Cookie Policy.